Location: ??????
(38.3184°N, 23.6932°E)
Time: 19:37:05
(UTC+00:00)

X-37B - Visible Passes

Search period start: 09 December 2022 00:00
Search period end: 19 December 2022 00:00
Orbit: 277 x 277 km, 45.0° (Epoch: 01 November)

Date Brightness Start Highest point End Pass type
(mag) Time Alt. Az. Time Alt. Az. Time Alt. Az.
09 Dec 0.5 16:00:16 10° W 16:02:39 46° NNW 16:04:00 21° NE visible
10 Dec 1.3 16:01:12 10° W 16:03:24 29° NNW 16:04:40 18° NNE visible
11 Dec 1.8 16:02:14 10° WNW 16:04:13 21° NNW 16:05:18 16° NNE visible
12 Dec 2.0 16:03:15 10° NW 16:05:03 18° N 16:05:57 15° NNE visible
13 Dec 2.0 16:04:13 10° NW 16:05:54 16° N 16:06:37 15° NNE visible
14 Dec 1.9 16:05:02 10° NW 16:06:46 17° N 16:07:19 16° NNE visible
15 Dec 1.7 16:05:44 10° NW 16:07:37 19° N 16:08:06 18° NNE visible
16 Dec 1.3 16:06:20 10° NW 16:08:27 24° NNE 16:08:58 22° NE visible
17 Dec 0.7 16:06:55 10° NW 16:09:13 35° NNE 16:09:59 27° ENE visible
18 Dec -0.1 16:07:32 10° WNW 16:09:58 62° NNE 16:11:12 24° E visible
